Regional Weather Roundup
Issued by NWS

Home | Current Version | Previous Version | Graphics & Text | Print | Product List | Glossary On
Versions: 1 2 3 4 5 6 7 8 9 10 11 12 13 14 15 16 17 18 19 20 21 22 23 24 25 26 27 28 29 30 31 32 33 34 35 36 37 38 39 40 41 42 43 44 45 46 47 48 49 50
000
ASUS43 KMPX 180810
RWRMN
WEATHER ROUNDUP FOR MINNESOTA
NATIONAL WEATHER SERVICE TWIN CITIES/CHANHASSEN MN
300 AM CDT FRI APR 18 2014


NOTE: "FAIR" INDICATES FEW OR NO CLOUDS BELOW 12,000 FEET WITH NO
SIGNIFICANT WEATHER AND/OR OBSTRUCTIONS TO VISIBILITY. N/A MEANS
CURRENT SKY AND/OR WEATHER CONDITIONS ARE NOT AVAILABLE.

MNZ060>063-068>070-180900-
   Twin Cities Metro

CITY           SKY/WX    TMP DP  RH WIND       PRES   REMARKS
TWIN CITIES    CLEAR     29  25  85 CALM      30.33S
ST PAUL        CLEAR     28  26  92 CALM      30.34S
CRYSTAL        CLEAR     24  20  84 CALM      30.32S FOG
BLAINE         CLEAR     25  25 100 CALM      30.33S FOG
EDEN PRAIRIE   CLEAR     29  25  85 CALM      30.32S
LAKEVILLE      CLEAR     23  21  93 CALM      30.32S FOG
SOUTH ST PAUL  CLEAR     31  27  86 CALM      30.33S
LAKE ELMO      FAIR      27  27 100 CALM      30.34S
$$
MNZ001>005-007-008-013>017-022>024-027-028-180900-
   Northwest Minnesota

CITY           SKY/WX    TMP DP  RH WIND       PRES   REMARKS
BEMIDJI        PTCLDY    25  16  68 CALM      30.28S
HALLOCK        CLOUDY    28  18  64 E9        30.30S WCI  20
ROSEAU         CLEAR     25  18  74 NE3       30.31S
WARROAD        CLEAR     21  16  79 CALM      30.32S
THIEF RVR FALL CLEAR     28  14  54 E6        30.30S WCI  22
CROOKSTON      MOCLDY    32  19  59 E5        30.30F WCI  27
FOSSTON        PTCLDY    23  10  58 CALM      30.29S
DETROIT LAKES  PTCLDY    30  19  64 CALM      30.27F
MOORHEAD       CLOUDY    34  27  75 E2        30.29S
PARK RAPIDS    PTCLDY    29  17  61 E3        30.27S
$$
MNZ006-009>011-018-025>026-180900-
   North Central Minnesota

CITY           SKY/WX    TMP DP  RH WIND       PRES   REMARKS
BAUDETTE       CLEAR     20  12  71 NW6       30.31F WCI  12
FLAG ISLAND    CLEAR     19  16  86 CALM      30.31S
INTL FALLS     CLEAR     18  15  88 CALM      30.32R
WASKISH        CLEAR     18  18 100 CALM      30.31S
BIG FORK       CLEAR     19  16  86 CALM      30.31S
LONGVILLE      CLOUDY    27  21  80 CALM      30.29S
GRAND RAPIDS   CLOUDY    25  19  80 CALM      30.30S
CRANE LAKE     CLEAR     10   7  85 CALM      30.34F
ORR            CLEAR     16  12  86 CALM      30.29S
COOK           CLEAR     16  14  93 CALM      30.31S
$$
MNZ012-019>021-037-180900-
   Northeast Minnesota

CITY           SKY/WX    TMP DP  RH WIND       PRES   REMARKS
DULUTH         MOCLDY    26  19  74 CALM      30.30S
ELY            CLEAR     16  14  93 CALM      30.30S
HIBBING        PTCLDY    20  16  84 CALM      30.31R
EVELETH        PTCLDY    19  18  93 CALM      30.32S
DULUTH HARBOR  MOCLDY    28  23  80 CALM      30.35S
TWO HARBORS    MOCLDY    27  19  74 CALM      30.30S
SILVER BAY     MOCLDY    25  21  86 CALM      30.29S
GRAND MARAIS     N/A     31  29  92 CALM      30.31S
G MARAIS ARPRT CLOUDY    27  21  80 NW5       30.26S WCI  21
$$
MNZ029>031-032-039>041-046>048-054>057-064-180900-
   West Central Minnesota

CITY           SKY/WX    TMP DP  RH WIND       PRES   REMARKS
FERGUS FALLS   CLOUDY    34  23  64 SE5       30.27R WCI  30
WHEATON        MIX PCPN  36  27  69 SE5       30.30S
MORRIS         MOCLDY    30  27  86 SE3       30.28R
ALEXANDRIA     MOCLDY    28  24  85 CALM      30.28F
ELBOW LAKE     CLOUDY    32  26  76 E3        30.28S
WADENA         MOCLDY    27  19  74 CALM      30.27S
GLENWOOD       MOCLDY    27  21  80 CALM      30.29S
APPLETON       CLOUDY    30  25  80 CALM      30.29R
BENSON         CLOUDY    28  25  86 CALM      30.29S
ORTONVILLE     CLOUDY    30  23  74 SE5       30.28R WCI  25
MADISON        CLOUDY    34  28  80 SE5       30.28S WCI  30
WILLMAR        FAIR      27  23  86 E3        30.30F
$$
MNZ033>034-036-042>043-049>051-058-059-180900-
   Central Minnesota

CITY           SKY/WX    TMP DP  RH WIND       PRES   REMARKS
ST CLOUD       CLEAR     22  19  89 CALM      30.30F
SAUK CENTRE    FAIR      21  19  91 CALM      30.29S
PAYNESVILLE    PTCLDY    23  21  91 CALM      30.30S
AITKIN         MOCLDY    30  21  69 CALM      30.28S
PINE RIVER     MOCLDY    28  21  74 E5        30.31S WCI  23
BRAINERD       CLOUDY    34  22  61 CALM      30.29S
STAPLES        MOCLDY    27  18  69 CALM      30.27S
LONG PRAIRIE   FAIR      25  19  80 CALM      30.29R
LITTLE FALLS   CLEAR     27  18  69 CALM      30.29F
LITCHFIELD       N/A     25  25 100 CALM      30.31S
BUFFALO        CLEAR     23  21  92 CALM      30.33S
MAPLE LAKE     PTCLDY    23  23  99 CALM      30.32F FOG
$$
MNZ037-044-045-052-053-180900-
   East Central Minnesota

CITY           SKY/WX    TMP DP  RH WIND       PRES   REMARKS
PRINCETON      CLEAR     21  19  93 CALM      30.31F
MORA           CLEAR     19  18  93 CALM      30.33S
CAMBRIDGE      CLEAR     25  19  80 CALM      30.30F
RUSH CITY      PTCLDY    21  19  93 CALM      30.32F
MOOSE LAKE     MOCLDY    23  21  93 NE5       30.30S WCI  17
HINCKLEY       FAIR      27  23  86 CALM      30.31S
CLOQUET        MOCLDY    21  19  93 CALM      30.30S
MCGREGOR       PTCLDY    30  23  74 E3        30.31S
$$
MNZ071>073-080-081-089-090-097-098-180900-
   Southwest Minnesota

CITY           SKY/WX    TMP DP  RH WIND       PRES   REMARKS
MONTEVIDEO     CLOUDY    30  25  80 SW3       30.30R
GRANITE FALLS  CLOUDY    28  24  87 S5        30.31R WCI  22
CANBY          CLOUDY    32  26  80 SE3       30.29S
MARSHALL       MOCLDY    32  25  74 SE8       30.27S WCI  25
REDWOOD FALLS  CLOUDY    31  28  89 E3        30.29F
OLIVIA         CLOUDY    27  23  86 CALM      30.28F
PIPESTONE      CLOUDY    32  28  86 SE7       30.24S WCI  26
WINDOM         MOCLDY    30  28  93 E3        30.28F
WORTHINGTON    MOCLDY    30  25  80 E6        30.28S WCI  24
JACKSON        MOCLDY    32  28  86 E6        30.28S WCI  26
TRACY          CLOUDY    33  28  84 CALM      30.28S
SLAYTON        CLOUDY    32  28  87 E6        30.27F WCI  26
$$
MNZ065>067-074>077-082>085-091>093-180900-
   South Central Minnesota

CITY           SKY/WX    TMP DP  RH WIND       PRES   REMARKS
MANKATO        MOCLDY    30  25  80 NE5       30.32S WCI  25
NEW ULM        CLOUDY    28  28 100 CALM      30.31S
ST JAMES       CLOUDY    30  28  93 E3        30.32S
FAIRMONT       PTCLDY    28  25  86 CALM      30.32S
GLENCOE        CLEAR     27  24  88 CALM      30.31S FOG
FARIBAULT      CLEAR     28  25  86 CALM      30.32S HAZE
OWATONNA       CLEAR     28  27  93 CALM      30.32R FOG
WASECA         CLEAR     30  28  93 CALM      30.33S FOG
ALBERT LEA       N/A    N/A N/A N/A MISG      30.31S
$$
MNZ078>079-086>088-094>096-180900-
   Southeast Minnesota

CITY           SKY/WX    TMP DP  RH WIND       PRES   REMARKS
ROCHESTER      CLEAR     30  25  81 SW3       30.31S
RED WING       CLEAR     25  25 100 CALM      30.33S FOG
STANTON        FOG       28  26  93 CALM      30.31F VSB 1/2
DODGE CENTER   CLEAR     30  30 100 CALM      30.31R FOG
WINONA         CLEAR     30  28  93 CALM      30.34S
AUSTIN         CLEAR     27  27 100 CALM      30.31S FOG
PRESTON        CLEAR     30  27  86 CALM      30.31S
$$
ABBREVIATIONS USED IN REMARKS
   TC - TEMPERATURES IN CELSIUS
  WCI - WIND CHILL INDEX
   HX - HEAT INDEX
  VSB - VISIBILITY
$$



USA.gov is the U.S. government's official web portal to all federal, state and local government web resources and services.